User: anonymous   Login
Location: Nashville
(36.1660°N, 86.7840°W)
Time: 05:04:39
(UTC-05:00)
Language:

CUBEBUG 2 - Orbit

View from above orbital plane
View from above orbital plane
View from above satellite
View from above satellite

Ground track
Ground track

The orbit data is extracted from the following two-line orbital elements,

1 39440U 13066AA  22141.89836292  .00002614  00000-0  36054-3 0  9997
2 39440  97.7239 100.5773 0077731 216.6899 142.8976 14.76935010456365
Epoch (UTC): 21 May 2022 21:33:38
Eccentricity: 0.0077731
inclination: 97.7239°
perigee height: 584 km
apogee height: 693 km
right ascension of ascending node: 100.5773°
argument of perigee: 216.6899°
revolutions per day: 14.76935010
mean anomaly at epoch: 142.8976°
orbit number at epoch: 45636

The dashed part of the orbit path shows where the satellite is in the earth's shadow,  

DLR